When you browse on this site, cookies collect data to enhance your experience and personalize the content and advertising you see.
Visit our Privacy Policy to learn more. By continuing to use the site, you agree to this use of cookies and data.
  • en France
  • Liste des pays
  • À 7 jours
  • Température de l'eau
  • Carte météo
  • Widgets météo
  • user-avatar
    Se connecter

    Météo par heure à Viedma

    Ce jour, 25 Février, Mardi

    Heure Température Précipitation Vent Pression Humidité
    00:00 +15°C° 0 mm 1 m/s 752 mmHg 58%
    01:00 +16°C° 0 mm 2 m/s 752 mmHg 56%
    02:00 +16°C° 0 mm 3 m/s 752 mmHg 54%
    03:00 +16°C° 0 mm 3 m/s 753 mmHg 56%
    04:00 +16°C° 0 mm 3 m/s 753 mmHg 59%
    05:00 +16°C° 0 mm 3 m/s 754 mmHg 61%
    06:00 +17°C° 0 mm 3 m/s 754 mmHg 59%
    07:00 +17°C° 0 mm 3 m/s 755 mmHg 57%
    08:00 +18°C° 0 mm 2 m/s 755 mmHg 55%
    09:00 +19°C° 0 mm 3 m/s 756 mmHg 46%
    10:00 +21°C° 0 mm 5 m/s 756 mmHg 38%
    11:00 +23°C° 0 mm 6 m/s 757 mmHg 29%
    12:00 +23°C° 0 mm 7 m/s 757 mmHg 29%
    13:00 +23°C° 0 mm 7 m/s 757 mmHg 29%
    14:00 +23°C° 0 mm 8 m/s 757 mmHg 28%
    15:00 +23°C° 0 mm 7 m/s 757 mmHg 29%
    16:00 +22°C° 0 mm 6 m/s 757 mmHg 30%
    17:00 +22°C° 0 mm 5 m/s 757 mmHg 31%
    18:00 +20°C° 0 mm 4 m/s 757 mmHg 37%
    19:00 +18°C° 0 mm 3 m/s 757 mmHg 43%
    20:00 +17°C° 0 mm 3 m/s 757 mmHg 48%
    21:00 +16°C° 0 mm 2 m/s 758 mmHg 52%
    22:00 +16°C° 0 mm 2 m/s 758 mmHg 55%
    23:00 +16°C° 0 mm 2 m/s 758 mmHg 58%

    Demain, 26 Février, Mercredi

    Heure Température Précipitation Vent Pression Humidité
    00:00 +14°C° 0 mm 3 m/s 758 mmHg 58%
    01:00 +14°C° 0 mm 3 m/s 758 mmHg 58%
    02:00 +14°C° 0 mm 4 m/s 757 mmHg 58%
    03:00 +14°C° 0 mm 4 m/s 757 mmHg 60%
    04:00 +14°C° 0 mm 4 m/s 757 mmHg 61%
    05:00 +14°C° 0 mm 4 m/s 758 mmHg 62%
    06:00 +17°C° 0 mm 4 m/s 757 mmHg 51%
    07:00 +19°C° 0 mm 5 m/s 757 mmHg 41%
    08:00 +21°C° 0 mm 6 m/s 757 mmHg 30%
    09:00 +24°C° 0 mm 6 m/s 757 mmHg 26%
    10:00 +27°C° 0 mm 6 m/s 757 mmHg 22%
    11:00 +30°C° 0 mm 7 m/s 757 mmHg 18%
    12:00 +30°C° 0 mm 7 m/s 757 mmHg 18%
    13:00 +32°C° 0 mm 7 m/s 756 mmHg 18%
    14:00 +32°C° 0 mm 6 m/s 756 mmHg 18%
    15:00 +32°C° 0 mm 6 m/s 755 mmHg 19%
    16:00 +32°C° 0 mm 5 m/s 755 mmHg 20%
    17:00 +30°C° 0 mm 5 m/s 755 mmHg 20%
    18:00 +28°C° 0 mm 4 m/s 755 mmHg 25%
    19:00 +25°C° 0 mm 3 m/s 755 mmHg 30%
    20:00 +23°C° 0 mm 2 m/s 755 mmHg 35%
    21:00 +23°C° 0 mm 2 m/s 755 mmHg 39%
    22:00 +21°C° 0 mm 3 m/s 755 mmHg 43%
    23:00 +21°C° 0 mm 4 m/s 755 mmHg 46%

    Après-demain, 27 Février, Jeudi

    Heure Température Précipitation Vent Pression Humidité
    00:00 +21°C° 0 mm 4 m/s 754 mmHg 44%
    01:00 +21°C° 0 mm 4 m/s 754 mmHg 41%
    02:00 +21°C° 0 mm 4 m/s 753 mmHg 39%
    03:00 +21°C° 0 mm 4 m/s 753 mmHg 39%
    04:00 +21°C° 0 mm 4 m/s 753 mmHg 40%
    05:00 +20°C° 0 mm 4 m/s 753 mmHg 40%
    06:00 +22°C° 0 mm 5 m/s 753 mmHg 35%
    07:00 +23°C° 0 mm 5 m/s 753 mmHg 31%
    08:00 +26°C° 0 mm 5 m/s 753 mmHg 26%
    09:00 +27°C° 0 mm 6 m/s 753 mmHg 26%
    10:00 +29°C° 0 mm 6 m/s 753 mmHg 26%
    11:00 +30°C° 0 mm 7 m/s 753 mmHg 26%
    12:00 +32°C° 0 mm 7 m/s 753 mmHg 26%
    13:00 +32°C° 0 mm 7 m/s 753 mmHg 26%
    14:00 +32°C° 0 mm 7 m/s 753 mmHg 25%
    15:00 +30°C° 0 mm 6 m/s 752 mmHg 27%
    16:00 +29°C° 0 mm 5 m/s 752 mmHg 30%
    17:00 +28°C° 0 mm 5 m/s 752 mmHg 32%
    18:00 +26°C° 0 mm 4 m/s 752 mmHg 37%
    19:00 +24°C° 0 mm 3 m/s 753 mmHg 43%
    20:00 +21°C° 0 mm 3 m/s 753 mmHg 49%
    21:00 +21°C° 0 mm 3 m/s 753 mmHg 50%
    22:00 +21°C° 0 mm 3 m/s 753 mmHg 50%
    23:00 +20°C° 0 mm 3 m/s 753 mmHg 51%

    28 Février, Vendredi

    Heure Température Précipitation Vent Pression Humidité
    00:00 +20°C° 0 mm 3 m/s 753 mmHg 53%
    01:00 +20°C° 0 mm 3 m/s 753 mmHg 55%
    02:00 +20°C° 0 mm 3 m/s 753 mmHg 56%
    03:00 +19°C° 0 mm 2 m/s 754 mmHg 62%
    04:00 +18°C° 0 mm 2 m/s 754 mmHg 68%
    05:00 +18°C° 0 mm 1 m/s 755 mmHg 73%
    06:00 +20°C° 0 mm 1 m/s 755 mmHg 67%
    07:00 +20°C° 0 mm 2 m/s 755 mmHg 60%
    08:00 +23°C° 0 mm 2 m/s 756 mmHg 54%
    09:00 +25°C° 0 mm 2 m/s 756 mmHg 46%
    10:00 +27°C° 0 mm 2 m/s 756 mmHg 38%
    11:00 +29°C° 0 mm 2 m/s 757 mmHg 30%
    12:00 +30°C° 0 mm 3 m/s 757 mmHg 30%
    13:00 +30°C° 0 mm 4 m/s 757 mmHg 29%
    14:00 +32°C° 0 mm 5 m/s 757 mmHg 29%
    15:00 +29°C° 0 mm 6 m/s 757 mmHg 34%
    16:00 +28°C° 0 mm 6 m/s 757 mmHg 39%
    17:00 +27°C° 0 mm 6 m/s 758 mmHg 45%
    18:00 +23°C° 0 mm 5 m/s 758 mmHg 55%
    19:00 +21°C° 0 mm 5 m/s 759 mmHg 66%
    20:00 +19°C° 0 mm 4 m/s 760 mmHg 77%
    21:00 +18°C° 0 mm 4 m/s 760 mmHg 79%
    22:00 +18°C° 0 mm 4 m/s 761 mmHg 82%
    23:00 +17°C° 0 mm 4 m/s 761 mmHg 85%

    29 Février, Samedi

    Heure Température Précipitation Vent Pression Humidité
    00:00 +17°C° 0 mm 4 m/s 761 mmHg 86%
    01:00 +15°C° 0 mm 4 m/s 761 mmHg 87%
    02:00 +15°C° 0 mm 4 m/s 762 mmHg 88%
    03:00 +16°C° 0 mm 3 m/s 762 mmHg 89%
    04:00 +14°C° 0 mm 3 m/s 762 mmHg 90%
    05:00 +15°C° 0 mm 2 m/s 763 mmHg 91%
    06:00 +16°C° 0 mm 3 m/s 763 mmHg 84%
    07:00 +17°C° 0 mm 3 m/s 763 mmHg 76%
    08:00 +19°C° 0 mm 3 m/s 764 mmHg 69%
    09:00 +20°C° 0 mm 3 m/s 764 mmHg 60%
    10:00 +22°C° 0 mm 3 m/s 764 mmHg 50%
    11:00 +25°C° 0 mm 3 m/s 764 mmHg 41%
    12:00 +26°C° 0 mm 4 m/s 764 mmHg 37%
    13:00 +27°C° 0 mm 4 m/s 763 mmHg 34%
    14:00 +28°C° 0 mm 5 m/s 763 mmHg 31%
    15:00 +27°C° 0 mm 6 m/s 763 mmHg 35%
    16:00 +26°C° 0 mm 7 m/s 763 mmHg 40%
    17:00 +23°C° 0 mm 8 m/s 762 mmHg 44%
    18:00 +22°C° 0 mm 8 m/s 762 mmHg 50%
    19:00 +20°C° 0 mm 8 m/s 762 mmHg 57%
    20:00 +17°C° 0 mm 8 m/s 762 mmHg 63%
    21:00 +17°C° 0 mm 8 m/s 763 mmHg 64%
    22:00 +16°C° 0 mm 7 m/s 763 mmHg 65%
    23:00 +16°C° 0 mm 7 m/s 763 mmHg 66%

    1 Mars, Dimanche

    Heure Température Précipitation Vent Pression Humidité
    00:00 +16°C° 0 mm 7 m/s 762 mmHg 68%
    01:00 +16°C° 0 mm 7 m/s 762 mmHg 70%
    02:00 +16°C° 0 mm 6 m/s 762 mmHg 71%
    03:00 +16°C° 0 mm 6 m/s 762 mmHg 68%
    04:00 +15°C° 0 mm 6 m/s 762 mmHg 65%
    05:00 +15°C° 0 mm 6 m/s 762 mmHg 62%
    06:00 +16°C° 0 mm 7 m/s 762 mmHg 56%
    07:00 +17°C° 0 mm 7 m/s 762 mmHg 51%
    08:00 +18°C° 0 mm 8 m/s 762 mmHg 46%
    09:00 +21°C° 0 mm 8 m/s 761 mmHg 41%
    10:00 +24°C° 0 mm 7 m/s 761 mmHg 35%
    11:00 +27°C° 0 mm 7 m/s 761 mmHg 30%
    12:00 +29°C° 0 mm 7 m/s 760 mmHg 28%
    13:00 +32°C° 0 mm 7 m/s 760 mmHg 26%
    14:00 +33°C° 0 mm 7 m/s 759 mmHg 23%
    15:00 +33°C° 0 mm 7 m/s 758 mmHg 25%
    16:00 +32°C° 0 mm 7 m/s 758 mmHg 27%
    17:00 +30°C° 0 mm 7 m/s 757 mmHg 28%
    18:00 +28°C° 0 mm 7 m/s 757 mmHg 37%
    19:00 +24°C° 0 mm 7 m/s 757 mmHg 46%
    20:00 +22°C° 0 mm 7 m/s 757 mmHg 55%
    21:00 +22°C° 0 mm 7 m/s 756 mmHg 55%
    22:00 +22°C° 0 mm 7 m/s 756 mmHg 55%
    23:00 +22°C° 0 mm 7 m/s 756 mmHg 55%
    Voir plus